Location: *
(49.0044°N, 9.5056°E)
Time: 13:27:20
(UTC+00:00)

Cosmos 2056 Rocket - Pass Details

Date: 22 September 2019
Orbit: 742 x 800 km, 74.0° (Epoch: 20 October)

Event Time Altitude Azimuth Distance (km) Brightness Sun altitude
Rises 19:06:34 0° 208° (SSW) 3,297 6.9 -17.8°
Reaches altitude 10° 19:08:58 10° 210° (SSW) 2,370 6.1 -18.1°
Maximum altitude 19:14:22 71° 295° (WNW) 844 3.8 -18.9°
Drops below altitude 10° 19:19:46 10° 20° (NNE) 2,368 6.1 -19.7°
Sets 19:22:11 0° 23° (NNE) 3,294 6.8 -20.1°
